Regional Weather Roundup
Issued by NWS Charleston, WV

Home | Current Version | Previous Version | Graphics & Text | Print | Product List | Glossary On
Versions: 1 2 3 4 5 6 7 8 9 10 11 12 13 14 15 16 17 18 19 20 21 22 23 24 25 26 27 28 29 30 31 32 33 34 35 36 37 38 39 40 41 42 43 44 45 46 47 48 49 50
000
ASUS41 KRLX 312310
RWRRLX
West Virginia Regional Weather Roundup
National Weather Service Charleston WV
700 PM EDT FRI JUL 31 2015

Note: "fair" indicates few or no clouds below 12,000 feet with no
significant weather and/or obstructions to visibility.

WVZ003-010000-
Northern Panhandle of West Virginia

CITY           SKY/WX    TMP DP  RH WIND       PRES   REMARKS
WHEELING       PTSUNNY   82  59  45 W8        29.91F
$$

WVZ009-010000-
Northwest West Virginia

CITY           SKY/WX    TMP DP  RH WIND       PRES   REMARKS
PARKERSBURG    SUNNY     85  61  44 W9        29.95F
$$

WVZ006-010000-
Western West Virginia

CITY           SKY/WX    TMP DP  RH WIND       PRES   REMARKS
HUNTINGTON     MOSUNNY   83  60  45 W7        29.96F
$$

WVZ015-010000-
West Central West Virginia

CITY           SKY/WX    TMP DP  RH WIND       PRES   REMARKS
CHARLESTON     MOSUNNY   84  58  40 W3        29.95F
$$

WVZ022-031-010000-
North Central West Virginia

CITY           SKY/WX    TMP DP  RH WIND       PRES   REMARKS
CLARKSBURG     MOSUNNY   79  57  46 SW12      29.95S
MORGANTOWN     MOSUNNY   85  56  37 SW8       29.94F
$$

WVZ025-035-042-045-010000-
Southern West Virginia

CITY           SKY/WX    TMP DP  RH WIND       PRES   REMARKS
BECKLEY        SUNNY     77  56  48 NW7       30.05F
LOGAN            N/A     81  61  50 CALM      29.98S
BLUEFIELD      SUNNY     77  55  46 NW8       30.08S
LEWISBURG      SUNNY     78  55  43 NW5       30.03F
$$

WVZ047-010000-
Northern Mountains of West Virginia

CITY           SKY/WX    TMP DP  RH WIND       PRES   REMARKS
ELKINS         SUNNY     78  57  48 W3        30.00F
$$

WVZ052-010000-
Eastern Panhandle of West Virginia

CITY           SKY/WX    TMP DP  RH WIND       PRES   REMARKS
MARTINSBURG    SUNNY     85  56  37 W9        29.88S
PETERSBURG     SUNNY    N/A N/A N/A W5        29.93S
$$


USA.gov is the U.S. government's official web portal to all federal, state and local government web resources and services.